MONITOR-3 (RS58S)

Last updated on Mon Sep 21 2026 00:03:14 GMT+0000 (Coordinated Universal Time)

1 57180U 23091Q 26263.56992557 .00007158 00000+0 25261-3 0 9992 2 57180 97.4987 327.7786 0012484 120.0406 240.2074 15.29479045178864
UTC large
Height (km)
Speed (km/s)
/
Latitude / Longitude
Inclination (degrees)
Orbital Period (minutes)
Azimuth
Elevation
Range (km)
Doppler Factor

Next 0 passes for location: London (51.5072 / 0.1276)

No passes found over London.
MONITOR-3 (RS58S)